GEFSNE_500_meanwind_012.txt.gz
Wind_Speed
21 21 23 25 25 24 23 25 25 25 25 23 21 19 18 18 19 20 21 24 26 26 25 25 24 24 24 23 22 21 21 22 21 21 21 21 20 20
19 18 19 20 20 19 20 19 22 24 25 25 24 21 20 19 18 18 19 21 25 26 26 26 26 25 25 23 22 21 20 20 20 20 20 19 19 19
19 18 18 18 18 18 18 17 19 22 24 26 26 25 24 23 22 20 18 19 21 24 26 27 27 27 26 25 24 23 22 22 22 21 20 21 21 21
19 19 18 18 19 20 20 19 20 21 23 26 28 30 30 28 26 24 23 22 21 22 23 25 26 27 27 26 25 25 24 24 24 24 24 25 25 24
20 20 19 18 18 19 20 21 21 22 23 25 27 30 32 32 30 29 28 27 26 24 24 24 25 26 27 26 26 26 26 26 26 26 27 27 27 26
22 22 21 20 19 18 19 21 22 23 23 24 25 28 31 32 32 31 31 31 30 28 27 27 27 27 27 27 27 27 28 28 28 28 28 28 28 27
24 25 24 23 21 21 20 21 22 24 25 25 26 27 29 31 33 34 34 34 33 32 31 30 28 28 29 30 30 30 31 31 31 31 31 30 29 28
24 25 26 25 24 23 23 23 24 24 25 26 25 26 28 31 34 36 37 36 34 35 33 32 30 31 32 32 32 33 33 33 33 33 32 32 32 31
24 25 26 26 26 25 25 25 25 25 25 25 26 25 27 29 32 36 38 39 38 37 35 34 34 34 33 33 34 34 35 35 35 34 35 35 34 34
23 24 25 26 26 26 26 26 26 26 26 26 26 27 26 26 30 34 36 39 40 40 38 36 36 36 34 34 34 35 36 36 36 36 37 37 38 38
22 23 24 25 25 25 25 26 26 26 26 26 26 26 26 25 25 29 33 37 40 41 41 39 39 39 38 37 36 37 37 37 37 37 37 38 38 39
22 23 23 24 24 24 24 24 25 25 25 25 25 25 24 24 23 24 28 33 39 42 43 43 43 43 42 41 41 40 39 39 39 39 39 39 38 39
24 24 25 25 24 24 24 23 23 24 24 24 24 24 23 22 21 22 24 26 30 34 38 41 43 43 43 43 43 42 41 40 41 41 42 42 41 41
27 27 28 28 27 26 24 23 22 22 22 23 23 23 22 22 22 22 23 24 25 26 29 32 35 38 40 40 41 43 44 44 44 45 45 45 45 45
28 29 29 29 29 28 26 24 23 21 21 21 22 22 22 23 25 26 27 28 28 29 29 30 32 35 37 38 39 41 43 44 45 46 47 47 48 48
26 27 27 27 27 27 26 24 22 21 21 21 21 21 22 23 24 26 28 29 30 30 31 32 34 35 37 38 39 40 42 43 44 45 46 46 46 47
15 16 18 20 21 23 23 23 21 20 20 20 20 21 21 22 23 24 25 26 27 28 29 31 32 34 35 37 38 39 40 40 41 42 42 43 45 47
4 3 8 12 14 16 18 18 18 17 17 17 18 18 19 20 20 20 22 23 25 26 28 30 31 32 34 35 37 38 39 40 41 41 42 42 43 46
8 8 8 8 9 10 11 12 12 12 13 12 13 14 15 17 19 20 22 24 26 28 30 31 32 33 34 35 37 39 39 40 41 42 43 44 44 45
11 11 11 10 9 7 6 6 6 7 7 8 10 13 15 17 19 21 23 25 26 28 30 31 32 33 34 34 35 37 39 39 40 42 43 43 44 45
14 14 13 12 10 8 6 3 1 2 4 7 10 13 16 18 20 22 24 26 27 29 31 32 33 33 34 35 36 37 39 40 42 43 44 45 45 46
16 16 16 14 12 10 9 7 5 5 6 8 11 13 16 18 21 23 25 26 28 29 31 32 33 34 34 35 36 37 38 40 42 43 44 44 45 45
20 20 19 17 15 14 12 10 9 8 9 11 13 15 17 19 21 23 24 25 26 26 27 28 29 30 31 33 34 35 37 38 39 40 42 43 43 44

GEFSNE_500_meanwind_018.txt.gz
Wind_Speed
24 24 24 24 24 24 24 24 24 24 23 23 24 25 27 25 24 25 26 27 29 30 31 32 32 31 29 28 27 25 25 25 26 27 29 29 29 29
23 23 22 22 22 21 21 21 22 23 23 23 24 25 27 25 24 23 24 24 26 27 28 30 32 32 31 29 27 25 24 24 24 25 27 28 28 28
22 21 21 20 19 20 19 19 20 20 21 23 24 24 26 26 24 23 22 21 21 22 23 25 27 29 30 29 28 26 25 25 24 25 25 26 26 26
21 20 20 19 18 19 19 19 19 19 20 21 23 24 26 28 27 26 23 22 21 20 20 21 23 25 27 28 29 28 27 26 25 25 25 26 25 25
20 20 20 19 18 19 19 20 20 20 21 21 22 25 26 27 28 27 27 25 24 23 23 22 22 23 24 26 27 28 29 29 28 27 27 26 26 26
21 21 21 20 20 20 20 20 20 20 21 22 22 23 25 26 28 30 30 29 28 28 27 26 25 24 24 25 26 27 29 29 29 29 28 28 28 28
22 22 22 22 22 21 21 21 21 20 21 21 22 21 22 24 26 28 28 29 30 30 30 30 29 28 27 27 27 27 28 29 30 30 30 30 31 31
22 23 24 24 23 23 23 23 23 22 22 21 21 22 22 21 22 24 25 27 28 29 31 32 32 31 31 31 30 30 30 31 31 31 32 32 33 33
23 24 23 24 25 25 25 25 24 24 23 23 22 22 23 24 24 24 25 26 27 28 30 32 33 34 34 34 34 34 34 34 34 34 34 34 34 35
24 24 24 24 24 25 25 26 26 25 25 24 24 24 24 24 25 25 25 25 26 28 30 31 33 35 37 37 37 37 37 37 36 36 36 36 36 37
24 23 23 23 23 24 25 25 25 26 26 26 25 25 24 24 24 25 25 26 26 27 28 30 32 34 36 38 39 40 40 40 39 39 38 38 38 38
24 23 24 24 23 23 24 24 24 24 24 24 25 24 24 24 24 25 25 26 26 27 27 28 30 32 34 36 39 41 42 43 43 42 41 41 41 41
24 24 24 24 24 23 23 22 22 22 22 22 22 22 22 23 23 24 25 25 26 26 27 28 29 30 32 34 37 40 41 43 44 45 45 45 45 44
24 24 24 25 25 24 24 22 21 21 20 19 19 19 19 20 21 22 22 24 25 25 26 27 28 29 30 32 34 36 39 41 43 45 46 47 48 48
22 23 24 24 25 25 25 23 22 20 19 18 17 17 17 18 19 20 22 23 24 26 28 30 30 31 32 32 33 34 35 36 39 41 43 45 46 47
18 19 20 22 23 24 24 23 22 20 19 17 16 16 16 17 18 20 21 23 24 26 28 30 32 32 32 33 34 34 35 35 36 38 39 40 41 43
12 12 12 14 17 19 20 20 20 18 17 16 16 16 16 17 18 19 20 22 23 24 25 26 27 29 30 31 31 32 33 34 35 35 36 37 38 39
8 5 2 3 8 11 14 16 16 16 15 14 13 13 14 15 16 17 18 19 20 22 23 25 26 28 29 30 31 32 33 35 35 36 37 37 38 40
12 11 10 9 9 10 10 11 10 10 9 8 8 9 10 11 12 14 16 19 21 22 24 26 27 29 30 31 33 34 34 35 36 37 38 38 39 40
19 17 17 16 15 14 13 11 9 7 4 2 2 4 6 8 11 14 16 18 20 22 24 26 27 28 30 31 32 34 35 36 37 38 39 40 41 42
22 22 21 20 19 18 16 14 12 9 7 5 4 4 6 8 10 12 15 17 19 20 22 24 25 27 28 29 30 32 34 35 36 37 38 39 41 42
25 24 24 23 22 20 18 16 14 12 10 8 7 7 7 9 10 12 14 16 17 19 20 22 23 25 26 26 28 29 31 32 34 35 36 38 39 40
24 24 23 23 22 20 18 16 15 13 12 11 10 9 10 10 11 13 14 16 17 18 20 21 22 24 25 26 26 27 28 29 31 32 34 35 37 38

GEFSNE_500_meanwind_024.txt.gz
Wind_Speed
26 27 28 29 29 29 29 29 28 28 27 25 24 23 23 22 20 20 20 21 22 22 22 23 23 23 23 24 25 26 27 27 27 27 28 28 29 31
25 27 27 28 28 28 28 28 27 26 25 24 23 22 22 22 20 20 20 20 20 21 21 22 23 23 24 25 25 27 28 28 27 27 27 28 27 28
23 24 25 26 26 27 27 27 26 25 23 23 22 21 21 21 20 20 21 22 21 20 21 21 22 23 24 24 25 27 28 29 29 28 28 27 27 27
22 23 23 24 24 25 26 25 25 23 23 22 22 21 21 21 21 20 21 21 21 20 20 19 19 20 21 22 22 24 25 27 28 28 28 28 28 28
21 22 22 22 23 24 25 25 24 23 23 23 22 22 20 20 20 20 20 21 21 21 21 20 19 19 19 19 19 20 22 24 26 27 28 29 29 29
21 21 22 22 22 23 24 24 23 23 23 22 22 22 21 20 19 18 19 21 22 22 23 23 22 22 21 21 21 21 22 23 24 26 27 28 29 29
21 21 21 22 22 23 23 23 23 23 23 23 22 22 20 19 18 18 19 20 23 24 24 24 24 24 24 24 25 25 25 25 25 26 27 27 28 29
22 22 22 22 22 23 23 23 23 23 23 22 22 21 20 19 18 17 17 18 20 21 23 24 25 26 26 27 28 28 28 28 28 28 28 29 29 30
23 23 22 22 21 22 22 22 23 23 22 22 22 21 21 19 18 17 17 17 17 17 18 21 23 26 26 27 28 30 31 32 32 32 32 32 32 32
24 23 22 21 21 22 21 21 22 22 22 21 21 21 20 19 19 18 18 17 17 17 17 19 20 22 24 26 28 29 31 32 34 35 36 36 36 36
23 22 22 21 21 22 21 20 19 19 19 20 20 20 19 19 19 19 18 18 18 18 19 20 21 22 23 25 27 28 30 31 33 35 36 38 39 39
22 22 21 21 21 21 20 19 18 18 17 17 17 18 18 18 18 18 18 18 19 19 20 21 22 23 24 26 27 28 29 31 32 33 35 36 38 40
21 20 20 20 20 19 19 18 17 16 15 15 15 15 15 15 15 15 16 17 18 19 20 21 22 23 25 26 28 29 30 31 32 33 34 36 37 39
17 17 17 18 18 18 17 16 16 14 13 12 12 12 11 12 12 12 13 15 16 18 19 21 22 24 25 26 28 30 31 32 34 34 35 36 37 38
14 14 15 16 16 16 16 16 15 13 12 11 10 9 8 9 10 11 12 14 15 17 18 20 22 23 25 27 29 30 32 33 34 35 36 37 38 38
10 11 11 12 14 15 15 14 14 13 11 10 9 8 7 8 8 10 11 13 15 16 18 20 22 24 26 28 30 32 33 34 35 36 37 38 38 39
5 5 5 7 9 11 12 13 12 11 9 8 6 6 6 6 8 9 11 12 14 16 18 20 22 24 26 28 30 31 33 34 35 35 36 38 39 39
10 7 4 4 6 7 8 9 10 9 7 6 4 4 4 5 7 8 9 11 13 15 17 19 21 23 25 27 29 30 32 33 34 35 36 37 38 39
18 16 14 12 11 11 11 10 9 8 7 5 3 1 1 3 4 6 8 10 12 14 16 18 20 22 24 26 28 29 29 30 31 32 33 34 35 36
23 21 20 18 17 16 15 14 12 10 8 6 5 4 3 4 5 7 8 10 12 14 16 18 20 22 24 26 27 28 28 29 29 30 31 32 33 34
26 24 23 22 20 19 17 15 14 12 10 9 7 6 6 6 7 8 9 11 13 15 17 19 21 23 25 27 28 29 29 29 29 29 29 30 31 31
25 24 23 22 21 20 18 16 15 13 11 10 9 8 7 8 8 9 10 12 13 16 18 19 21 24 26 28 29 30 30 30 30 29 28 28 27 27
21 21 20 20 19 18 16 15 14 13 12 11 10 9 9 9 10 10 12 13 15 17 19 20 22 24 26 28 30 31 31 31 30 29 28 27 26 25

GEFSNE_500_meanwind_030.txt.gz
Wind_Speed
31 32 34 35 35 36 35 33 30 28 26 26 25 24 22 22 21 21 22 21 22 22 23 23 25 26 27 28 29 30 30 29 29 29 29 29 29 29
32 33 34 33 33 34 33 31 28 27 26 25 23 23 21 21 20 20 21 21 21 21 21 22 23 25 26 27 28 29 29 30 30 29 29 29 29 29
32 33 32 31 31 30 28 26 25 24 24 23 21 21 20 20 19 19 20 21 21 21 22 23 23 24 25 26 27 29 29 30 30 30 30 30 30 30
27 27 26 25 24 24 23 22 22 22 22 21 19 19 19 19 19 19 20 20 21 21 22 23 24 24 24 25 26 27 28 29 29 29 30 30 31 31
18 18 18 19 19 19 19 20 20 20 19 19 18 18 19 19 19 20 20 20 20 21 23 24 25 25 25 24 24 25 25 25 26 26 26 27 28 29
15 15 16 17 17 18 18 19 19 18 18 18 18 19 19 19 19 20 20 20 20 21 22 23 24 25 24 24 24 24 24 24 23 24 25 25 26 27
16 17 17 17 18 18 18 18 18 18 18 19 19 19 19 19 19 19 20 19 19 19 19 21 22 24 25 25 25 26 26 25 25 25 26 26 27 28
18 18 18 18 18 18 19 18 18 18 19 19 19 19 19 19 19 19 19 18 18 18 18 18 19 22 24 25 25 26 27 28 28 28 29 29 30 31
21 21 20 20 20 20 19 19 18 18 18 18 18 18 18 19 19 19 18 18 18 17 17 17 17 19 21 23 25 27 28 29 30 31 31 32 33 34
22 22 22 21 21 20 20 19 18 18 18 17 17 17 17 18 19 19 18 18 18 18 17 17 17 17 18 20 21 24 26 28 30 31 32 34 35 36
23 22 22 22 21 20 19 19 18 17 17 16 15 15 16 17 17 17 17 17 17 17 16 16 17 18 19 21 23 24 26 27 29 31 33 34 35 37
20 21 21 21 20 19 19 18 17 16 16 15 14 14 14 14 15 15 15 15 15 16 16 16 17 18 19 21 22 24 26 28 29 31 33 34 36 37
18 18 18 18 18 18 18 18 17 15 14 14 13 11 11 11 12 12 12 13 13 14 14 15 16 18 19 21 22 23 25 27 29 31 33 34 36 38
15 15 16 16 17 17 17 16 16 15 13 12 11 10 9 8 8 8 9 9 10 11 12 13 14 16 17 19 21 23 25 27 29 31 33 35 37 38
11 13 14 15 15 15 15 15 14 13 12 11 10 9 7 6 5 5 5 6 7 9 10 11 12 14 16 18 20 22 24 26 28 30 32 35 36 38
5 7 9 11 12 13 13 13 13 12 11 10 9 7 6 5 4 3 4 5 6 7 8 9 11 13 14 16 19 21 24 26 28 30 31 32 33 34
3 3 5 8 9 10 11 11 12 11 10 9 7 7 5 4 3 2 2 3 5 6 7 9 11 13 15 18 20 22 25 27 28 29 29 29 29 30
12 10 9 9 9 10 11 11 11 11 10 9 7 7 5 3 2 1 1 3 4 6 8 11 13 15 17 19 22 24 26 27 28 28 28 28 28 28
20 18 16 14 13 12 12 12 13 12 11 9 8 7 5 4 4 3 3 4 6 8 10 12 14 16 18 21 23 26 27 29 29 29 29 29 28 27
24 22 20 18 17 16 15 14 13 12 11 10 9 8 7 6 5 5 5 6 8 9 11 13 15 17 20 22 24 26 28 29 30 30 30 29 29 28
25 24 23 21 20 18 17 16 15 14 13 12 10 9 8 8 7 7 7 7 9 10 12 13 15 17 19 21 23 25 27 28 29 30 31 31 31 31
24 23 22 22 21 20 19 18 16 15 14 13 12 10 9 8 8 8 8 8 9 11 12 14 15 17 19 21 23 24 26 27 29 29 30 31 32 32
22 21 21 20 20 19 18 17 16 15 14 13 12 11 10 9 8 8 8 9 10 11 12 14 16 17 19 20 22 23 25 26 27 28 29 30 31 31

GEFSNE_500_meanwind_036.txt.gz
Wind_Speed
31 32 33 32 32 33 34 34 34 33 33 33 34 33 32 31 30 28 27 26 25 24 24 23 23 22 22 22 23 24 25 26 27 28 28 29 30 30
34 34 35 34 34 34 34 34 34 34 34 34 33 33 32 30 29 27 26 25 25 24 23 23 22 22 22 22 22 23 23 24 25 26 27 29 29 30
34 34 35 34 33 33 33 33 34 34 34 33 31 31 30 29 27 25 24 24 24 23 23 22 23 23 22 22 22 22 23 24 25 25 26 27 28 30
31 32 33 32 31 31 31 31 31 31 30 29 29 27 26 25 23 23 23 23 23 22 22 22 22 22 22 22 23 23 23 24 24 25 26 27 28 29
27 28 28 28 27 27 27 27 27 27 26 24 23 23 22 20 20 21 21 21 21 21 21 21 21 21 21 22 23 24 24 23 24 24 25 26 27 28
22 22 22 22 22 21 21 20 20 19 19 18 18 17 17 17 18 19 20 21 20 20 20 20 21 21 21 21 21 22 23 23 24 25 25 26 27 27
16 16 16 16 15 16 15 15 15 14 14 14 14 15 16 17 18 19 19 19 19 19 19 20 20 20 20 20 20 21 22 23 23 25 26 27 28 29
13 14 14 13 13 14 13 13 12 12 13 13 14 14 15 16 17 18 18 18 18 19 19 19 19 19 19 20 20 20 21 22 23 24 25 27 29 30
14 14 14 14 14 14 13 13 13 13 13 13 14 14 15 16 16 16 17 17 17 18 18 18 18 18 18 18 19 20 21 22 23 24 26 27 29 30
16 16 16 15 15 15 14 13 13 14 14 13 14 14 14 15 15 15 16 16 16 17 17 17 17 17 17 18 18 19 19 20 22 24 26 28 29 32
16 16 16 16 16 16 16 15 14 14 14 13 13 13 13 14 14 14 14 14 14 14 14 14 15 15 16 17 17 18 19 20 21 23 25 27 29 31
14 15 15 16 16 16 16 15 14 13 13 12 12 13 12 12 12 12 12 11 11 11 11 11 12 13 14 15 15 16 17 18 20 22 23 25 28 30
12 13 13 14 15 15 15 14 13 13 12 12 11 11 10 10 9 9 9 8 8 8 8 9 10 10 12 12 14 15 16 17 19 21 23 24 26 28
9 11 12 13 13 13 13 13 13 13 12 11 10 9 8 7 7 6 5 5 4 4 5 6 7 7 9 10 11 12 14 16 18 20 22 23 25 26
6 8 11 12 13 13 13 12 12 12 11 9 8 7 6 5 4 3 3 2 1 2 3 4 5 6 8 9 10 12 14 16 18 20 22 23 24 24
4 7 9 11 12 13 12 12 12 11 10 9 8 7 5 5 4 4 3 2 1 1 3 4 5 6 7 9 11 13 14 16 18 20 21 23 24 25
9 9 10 11 12 12 12 12 11 11 10 10 8 7 6 6 5 5 4 4 4 4 4 5 6 7 8 10 11 13 15 16 18 20 21 23 25 26
15 14 13 13 13 13 13 12 11 11 11 10 9 9 9 8 7 6 6 6 5 5 5 5 6 7 9 10 12 14 15 17 18 20 21 23 25 27
20 19 18 17 16 15 15 14 14 13 12 11 11 11 10 9 8 8 7 6 5 5 4 5 6 7 9 11 13 14 15 17 18 20 22 23 25 26
22 22 20 19 18 18 17 16 15 14 13 13 12 11 10 9 9 8 7 6 5 4 4 5 6 8 10 11 13 14 16 17 19 20 21 23 24 25
24 23 22 21 20 19 18 17 16 15 14 13 12 11 11 10 9 7 6 5 5 5 5 6 8 9 11 12 14 15 17 18 19 21 22 23 24 25
22 22 22 21 20 19 18 17 16 15 15 14 13 12 11 9 8 8 7 6 6 6 6 7 9 10 12 14 15 16 17 19 20 21 22 23 24 25
21 21 20 20 19 19 18 17 16 15 14 14 13 12 11 10 9 8 7 7 7 7 8 9 10 12 13 14 16 17 18 20 21 21 22 23 24 25

GEFSNE_500_meanwind_042.txt.gz
Wind_Speed
30 30 30 30 31 32 33 34 35 35 35 34 34 34 34 33 32 33 33 33 33 33 32 32 30 28 27 26 25 25 25 25 25 26 26 27 28 29
34 33 33 33 33 33 33 33 34 36 36 34 35 35 35 34 34 34 33 32 33 33 31 31 29 27 26 26 26 25 25 25 25 26 26 27 28 29
37 36 36 35 35 34 34 35 34 34 34 34 35 35 34 34 34 34 32 31 31 30 29 29 27 25 24 24 24 24 25 25 25 26 27 27 28 29
37 37 37 38 38 37 36 35 35 34 33 33 34 33 33 32 31 31 30 30 30 28 26 25 23 23 23 23 24 24 25 25 26 26 28 28 28 29
34 35 35 35 36 36 35 35 34 34 33 32 32 31 30 30 29 28 27 26 25 24 23 22 21 21 21 22 23 23 24 25 25 26 27 27 28 29
30 31 32 32 32 31 32 32 31 31 31 30 29 28 27 26 25 24 22 21 20 19 19 19 19 20 20 21 22 23 23 24 25 25 26 27 27 28
26 27 27 28 28 28 27 26 26 26 26 25 25 24 22 21 20 19 18 18 18 17 17 18 18 19 19 20 21 21 22 23 23 24 25 26 27 28
22 23 24 23 24 25 25 24 22 21 21 21 20 19 17 17 16 16 16 16 16 16 16 16 17 18 18 19 19 20 21 22 22 23 24 25 26 27
19 19 20 20 21 23 23 22 21 19 18 18 17 17 16 15 15 15 14 14 14 14 15 15 16 16 17 17 17 18 19 20 21 21 22 23 23 24
18 17 18 19 19 20 19 18 18 18 17 17 17 16 15 14 14 14 13 13 13 13 13 14 14 15 15 15 16 17 18 18 19 19 20 20 21 22
16 17 17 18 18 18 18 18 17 17 16 16 15 14 14 14 13 13 12 12 12 12 12 12 12 12 12 13 13 14 15 15 16 16 17 17 19 20
14 15 16 17 18 18 18 18 17 16 15 15 14 14 14 13 13 12 11 11 11 10 10 10 9 9 10 10 10 11 12 12 13 13 14 15 16 16
12 14 15 16 17 17 17 17 16 15 15 14 14 14 13 12 12 11 10 10 9 9 8 7 7 7 7 7 8 8 8 9 10 11 12 13 14 15
11 12 14 16 17 17 17 16 15 15 14 14 13 13 12 11 10 10 9 8 8 7 6 6 5 5 5 5 5 6 7 8 9 10 10 12 13 15
9 11 14 14 16 16 16 15 15 14 14 13 12 12 11 10 9 9 9 8 7 6 5 5 4 4 3 3 4 5 6 7 8 9 10 12 13 14
7 10 13 14 14 14 15 15 15 14 14 13 12 11 10 9 9 9 8 8 7 6 5 4 3 2 2 2 4 5 6 7 8 9 10 11 13 14
10 11 13 14 14 14 14 14 13 13 13 12 12 11 10 10 9 9 8 8 7 6 4 3 2 1 1 2 3 5 6 7 8 9 10 12 12 13
14 15 15 15 14 14 14 13 13 13 13 13 12 11 11 11 10 9 8 8 7 6 4 3 2 1 1 2 4 5 6 7 9 10 11 12 13 14
17 16 16 15 15 14 14 14 14 14 13 13 12 12 11 11 10 9 9 7 6 5 4 2 1 1 2 3 5 6 7 8 9 11 12 12 13 14
19 18 17 16 15 15 15 14 14 14 13 13 13 12 11 11 10 9 7 6 5 4 3 2 1 1 3 4 5 7 8 9 10 11 12 13 14 15
19 18 18 17 16 16 15 14 14 14 14 13 12 12 11 10 9 7 6 6 5 4 2 1 1 2 4 5 6 7 8 9 10 11 13 14 15 16
19 19 18 17 17 16 16 15 15 14 13 13 12 11 10 9 8 7 6 5 4 3 1 1 2 3 4 6 7 8 9 10 11 12 13 14 15 16
18 17 17 17 16 16 15 15 14 13 13 12 11 10 9 8 8 7 6 4 3 1 1 2 3 4 5 7 8 9 10 11 12 13 14 15 16 17

GEFSNE_500_meanwind_048.txt.gz
Wind_Speed
29 30 30 30 29 29 29 29 30 30 31 31 31 31 31 30 30 30 30 31 31 31 31 32 32 33 33 33 33 34 33 32 32 31 30 30 29 30
31 30 30 31 31 30 29 29 29 29 29 30 31 31 31 31 32 32 32 32 31 32 32 33 33 34 34 34 33 32 31 31 30 29 29 28 28 28
32 32 31 32 32 32 31 31 30 30 29 29 30 30 31 32 32 32 32 32 32 32 32 32 34 33 32 31 30 30 30 28 27 27 27 27 27 29
32 33 33 32 32 33 33 33 32 31 30 29 29 28 29 30 29 28 29 30 30 30 31 31 30 29 29 28 27 26 25 24 24 25 25 25 26 27
32 32 32 32 32 33 33 34 33 32 31 30 29 29 28 28 27 27 27 28 28 29 29 28 27 26 26 24 23 22 21 21 21 22 23 23 24 25
30 31 32 32 32 32 33 33 32 31 31 30 30 28 27 27 27 27 27 26 25 25 25 24 24 23 21 20 19 19 19 19 19 20 21 22 23 24
27 29 30 31 31 31 30 30 30 30 30 29 29 28 27 27 27 25 24 23 23 22 21 20 19 17 16 16 16 16 16 17 17 18 19 20 21 22
23 25 26 27 28 29 29 28 28 28 27 26 26 25 25 24 23 23 22 20 20 19 18 16 15 14 14 13 13 13 13 14 15 16 17 18 19 19
20 22 23 25 26 26 26 25 26 25 24 22 21 20 20 20 19 18 18 18 18 17 16 15 13 12 11 11 10 11 12 13 13 14 15 16 16 16
18 20 21 22 22 23 23 23 22 21 21 20 19 17 16 16 15 15 15 15 15 13 12 12 10 9 8 9 9 10 11 11 12 12 13 13 13 14
16 17 17 18 19 20 20 20 20 18 18 17 17 16 15 15 15 14 13 13 12 11 10 9 8 7 7 7 8 8 9 9 10 10 11 11 11 11
14 14 15 16 16 17 18 18 18 18 18 17 16 15 13 13 12 12 12 11 10 9 8 7 6 6 6 6 6 6 7 7 8 9 9 9 9 10
10 12 13 15 15 16 17 17 17 18 18 17 16 14 13 12 10 10 10 9 8 8 7 6 6 5 5 5 5 5 6 7 7 8 8 8 9 10
7 9 11 14 15 16 16 15 15 17 16 15 14 13 12 11 10 9 8 8 7 7 6 6 5 5 4 4 4 5 5 6 6 7 7 8 9 10
5 8 11 13 15 16 16 16 15 14 14 13 13 12 11 10 9 8 7 7 7 7 7 6 5 5 4 4 4 4 5 5 6 7 7 8 9 10
8 9 11 13 15 16 16 15 16 15 14 13 12 11 10 9 9 9 8 7 7 7 6 5 5 5 4 4 3 4 4 5 5 6 7 8 9 10
13 13 13 14 15 16 16 15 14 14 13 13 12 11 10 9 9 8 8 7 7 6 5 4 4 4 4 3 3 3 4 4 5 6 7 9 10 11
17 16 16 16 16 16 16 15 14 14 13 12 11 11 10 9 9 8 8 7 6 5 5 4 3 3 2 2 2 3 4 5 6 7 8 9 10 11
19 18 17 16 16 16 15 14 14 13 12 12 11 11 10 10 9 8 7 6 6 5 4 4 3 2 2 2 2 3 5 5 6 7 9 10 11 12
19 18 17 16 15 15 15 14 14 13 13 12 11 11 10 9 8 7 7 6 5 5 4 4 3 2 2 3 4 5 6 7 8 8 9 11 12 13
18 17 16 16 15 15 14 14 14 13 13 12 11 10 10 9 8 7 7 6 5 5 4 3 3 3 3 4 5 6 7 8 8 9 11 12 13 14
18 17 17 16 15 15 14 14 13 12 11 11 10 9 9 8 7 6 6 5 5 4 3 3 3 4 5 5 6 7 8 8 9 11 12 13 13 14
17 16 15 14 14 13 13 12 12 11 10 10 9 8 8 7 6 5 5 4 4 3 3 3 4 5 6 7 8 9 9 10 11 12 13 13 14 15